sat.trackr.live / text

‹ back to catalog

STARLINK-35829

NORAD 66350 · 2025-254C

PAYLOAD ACTIVE UNKNOWN

§ Identity

Operator
Country
US
Launch date
2025-11-06
Launch site
AFWTR
Launch vehicle
Mass (kg)
RCS (m²)

Purposes: comms

External: N2YO · Heavens-Above · Gunter

§ Orbital elements

Epoch: 2026-09-20T23:24:54.511488Z

Period
94.01 min
Inclination
53.1588°
Eccentricity
0.0001436
Mean motion
15.31707076 rev/d
Perigee alt
469.7 km
Apogee alt
471.7 km
Semi-major
6,848.9 km
B*
8.9424e-5
RAAN
44.0371°
Arg perigee
73.9724°
Mean anomaly
286.1436°
Rev number
4,889

§ Raw data

STARLINK-358291 66350U 25254C   26263.97563092  .00002411  00000+0  89424-4 0  99962 66350  53.1588  44.0371 0001436  73.9724 286.1436 15.31707076 48893

JSON: /api/v1/satellites/66350 · /tle

For live sub-satellite position, see the globe view (requires WebGL).

§ Visibility from observer

Set your observer location to see the next 7 days of passes ≥ 10°. The values pass through the URL so the page stays shareable.

No JS? Fill the form by hand. The geolocation button needs JavaScript.